• Join FlightAware (Why Join?)
  • Login
  • US Flag 
06:00AM EDT


 

Airport Tracker/Info


-or-


 

Live Flight TrackerFlight Track Log ✈ LYM752 ✈ 09-Jan-2014 ✈ KANK - KALS

Flight Track Log - Related Links

Times and Time Zones

All times are in EST time to prevent confusion due to time zone crossing. See the LYM752 flight status page for this flight to view local times or setup timezone preferences in your user account.

Time Position Orientation Groundspeed Altitude Reporting Facility
EST Latitude Longitude Course Direction KTS MPH feet Rate Location/Type
11:09AM 38.2986 -105.9764 174° South 198 228 17,000  Level Denver Center
11:14AM 38.0369 -105.9411 174° South 173 199 17,000  Level Denver Center
11:15AM 37.9875 -105.9314 171° South 184 212 17,000  Level Denver Center
11:16AM 37.9286 -105.9208 172° South 189 217 17,000  Level Denver Center
11:17AM 37.8783 -105.9122 172° South 189 217 17,000  Level Denver Center
11:18AM 37.9292 -105.9365 169° South  Level FlightAware Approximate
11:18AM 37.8200 -105.8994 170° South 190 219 17,000  Level Denver Center
11:19AM 37.8874 -105.9297 174° South  Level FlightAware Approximate
11:19AM 37.7722 -105.8903 171° South 187 215 17,000  Level Denver Center
11:20AM 37.7144 -105.8825 174° South 186 214 17,000  Level Denver Center
11:21AM 37.6656 -105.8678 167° South 187 215 17,000  Level Denver Center
11:22AM 37.6092 -105.8625 176° South 186 214 17,000  Level Denver Center
11:23AM 37.5639 -105.8533 171° South 184 212 17,100 -60 Climbing Denver Center
11:24AM 37.5114 -105.8414 170° South 176 203 16,900 -120 Descending Denver Center
11:25AM 37.4656 -105.8331 172° South 174 200 16,900  Level Denver Center
11:26AM 37.4139 -105.8239 172° South 172 198 16,900  Level Denver Center
11:27AM 37.3694 -105.8156 172° South 170 196 17,000  Climbing Denver Center
11:28AM 37.3406 -105.8414 215° Southwest 146 168 16,900 -60 Descending Denver Center
11:29AM 37.3828 -105.8581 343° North 155 178 16,900  Level Denver Center
11:30AM 37.4122 -105.8814 328° Northwest 125 144 17,000  Climbing Denver Center
11:31AM 37.4358 -105.8569 39° Northeast 156 180 16,900  Descending Denver Center
11:33AM 37.3903 -105.8278 153° Southeast 166 191 17,000  Climbing Denver Center
11:34AM 37.3461 -105.8100 162° South 172 198 16,900 -60 Descending Denver Center
11:35AM 37.3550 -105.8397 291° West 139 160 16,900  Level Denver Center
11:36AM 37.3853 -105.8633 328° Northwest 120 138 16,900  Level Denver Center
11:37AM 37.4142 -105.8411 31° Northeast 158 182 16,900  Level Denver Center
11:38AM 37.3789 -105.8042 140° Southeast 171 197 17,000  Climbing Denver Center
11:39AM 37.3428 -105.8114 189° South 167 192 16,900 -540 Descending Denver Center
11:40AM 37.3769 -105.8408 326° Northwest 146 168 15,900 -600 Descending Denver Center
11:41AM 37.4208 -105.8672 334° Northwest 149 171 15,700 -240 Descending Denver Center
11:43AM 37.4333 -105.8500 338° Northwest  Level FlightAware Approximate
11:50AM 37.4349 -105.8666 338° Northwest  Level Estimated
11:51AM 37.4349 -105.8666 338° Northwest  Level Estimated
11:52AM 37.4349 -105.8666 338° Northwest  Level Estimated
11:53AM 37.4349 -105.8666 338° Northwest  Level Estimated
11:54AM 37.4349 -105.8666 338° Northwest  Level Estimated
11:55AM 37.4349 -105.8666 338° Northwest  Level Estimated
11:56AM 37.4349 -105.8666 338° Northwest  Level Estimated